Location: Caser�o Els Taronjers
(41.4398°N, 1.8676°E)
Time: 01:34:41
(UTC+00:00)

Daily predictions for brighter satellites

Satellite Brightness Start Highest point End
(mag) Time Altitude Azimuth Time Altitude Azimuth Time Altitude Azimuth
USA 234 4.5 02:19:51 10° E 02:24:09 36° ENE 02:24:09 36° ENE
Lacrosse 5 4.4 02:40:09 18° ENE 02:40:09 18° ENE 02:41:55 10° E
CZ-2C R/B 4.4 02:59:18 10° NE 03:02:02 24° ENE 03:02:02 24° ENE
ATLAS 5 CENTAUR R/B 4.1 03:19:17 15° E 03:19:17 15° E 03:21:05 10° ENE
S3M 4.2 03:21:13 65° NNE 03:21:13 65° NNE 03:26:32 10° N
ARIANE 5 R/B 4.3 03:21:25 10° N 03:23:22 23° N 03:23:22 23° N
Cosmos 1745 Rocket 4.1 03:20:46 10° N 03:26:31 74° NNE 03:26:31 74° NNE
USA 267 3.8 03:29:36 10° NE 03:35:40 42° NNW 03:35:57 42° NW
NOSS 3-2 (A) 4.1 03:35:47 10° NNW 03:43:28 80° NE 03:52:06 10° SE
Cosmos 2344 3.4 03:46:42 60° W 03:47:48 68° NW 03:55:37 10° NNE
Cosmos 1833 4.3 03:48:28 65° NNW 03:48:28 65° NNW 03:53:30 10° NNE
Cosmos 2251 Rocket 3.4 03:53:53 88° WSW 03:53:55 88° W 03:59:20 10° NNE
Cosmos 1386 Rocket 4.4 03:47:45 10° NNW 03:53:42 63° WNW 03:53:42 63° WNW
CENTAUR R/B 3.5 03:46:20 10° NNW 03:54:31 68° NE 04:03:25 10° SE
Cosmos 614 Rocket 4.3 03:54:14 47° SSE 03:55:31 63° ESE 04:00:42 10° NNE
OAO 3 Rocket 4.1 04:00:08 37° SSE 04:00:08 37° SSE 04:04:02 10° ESE
ISS -1.4 04:00:41 21° NNE 04:00:41 21° NNE 04:03:03 10° ENE
Cosmos 2360 Rocket 3.4 04:04:23 26° S 04:04:23 26° S 04:06:50 10° S
H-2A R/B 4.3 03:52:49 34° WSW 04:01:20 53° S 04:07:42 10° ESE
Lacrosse 4 Rocket 4.0 04:05:33 11° SSE 04:05:33 11° SSE 04:05:47 10° SSE
Meteor 2-17 Rocket 4.5 03:58:10 10° N 04:04:14 78° E 04:10:17 10° SSE
ALOS 2.7 04:00:04 10° NNE 04:04:42 60° E 04:07:02 28° S
PAYLOAD A 4.0 03:59:39 10° N 04:04:57 65° WNW 04:05:04 64° W
USA 234 3.1 04:02:16 10° SE 04:08:45 65° SW 04:11:35 35° WNW
Cosmos 2333 4.2 04:03:11 10° NNW 04:09:00 87° ENE 04:14:47 10° SSE
Cosmos 407 Rocket 4.4 04:06:17 13° S 04:10:38 47° ESE 04:15:34 10° NNE
CZ-4C R/B 2.1 04:10:13 47° S 04:11:35 71° ESE 04:17:12 10° NE
Cosmos 883 Rocket 4.3 04:11:11 43° SW 04:13:07 65° W 04:19:14 10° N
USA 276 4.0 04:16:02 26° NNE 04:16:02 26° NNE 04:17:56 10° NE
PSLV R/B 3.4 04:12:57 10° N 04:17:18 69° WNW 04:17:21 69° W
NOSS 3-4 (A) 3.5 04:16:30 29° SSW 04:19:33 73° ESE 04:25:43 10° NE
NOSS 3-4 (C) 3.5 04:16:34 29° SSW 04:19:39 72° ESE 04:25:49 10° NE
Lacrosse 5 1.7 04:19:24 39° NW 04:21:20 85° SW 04:26:23 10° SE
NOSS 3-2 (C) 4.1 04:17:48 10° NW 04:25:32 88° NE 04:34:13 10° SSE
GPS 2-04 Rocket1 3.6 04:26:32 33° S 04:26:32 33° S 04:29:42 10° ESE
Cosmos 2333 Rocket 2.1 04:24:28 10° NNW 04:30:15 79° WSW 04:36:01 10° SSE
Cosmos 1437 Rocket 3.6 04:28:36 10° S 04:32:34 52° E 04:36:29 10° NNE
Cosmos 1484 Rocket 2.5 04:30:32 10° N 04:34:14 78° WNW 04:35:27 40° SSW
ATLAS 2AS CENTAUR R/B 3.4 04:26:51 10° SSW 04:34:38 67° ESE 04:42:24 10° NE
Cosmos 1805 Rocket 3.6 04:30:35 10° NNW 04:34:56 52° W 04:39:14 10° S
Landsat 5 3.2 04:31:21 10° S 04:35:07 60° WSW 04:38:59 10° NNW
Delta 2 Rocket 4.3 04:35:05 34° SW 04:36:05 38° S 04:40:47 10° ESE
SJ-6F 4.3 04:33:38 10° N 04:37:48 71° WNW 04:40:19 23° SSW
Cosmos 2315 Rocket 4.1 04:34:41 22° SW 04:38:34 50° WNW 04:44:35 10° N
CZ-4B R/B 3.7 04:36:55 10° SE 04:39:27 24° ENE 04:41:59 10° NNE
Cosmos 2297 Rocket 3.8 04:35:13 10° SSE 04:40:16 35° ESE 04:45:21 10° NE
COSMO-SKYMED 1 3.9 04:36:16 10° SE 04:40:20 42° ENE 04:44:26 10° N
CZ-2C R/B 3.2 04:37:29 10° N 04:41:25 29° WNW 04:41:25 29° WNW
Cosmos 1782 3.3 04:38:38 10° S 04:42:31 61° E 04:46:26 10° NNE
Cosmos 2219 Rocket 2.1 04:39:14 10° NNW 04:44:52 70° WSW 04:50:30 10° SSE
Cosmos 1606 4.3 04:47:57 20° NW 04:47:57 20° NW 04:49:47 10° NNW
Cosmos 1140 Rocket 3.4 04:42:45 10° SSW 04:47:58 89° ESE 04:53:11 10° NNE
CBERS 1 LM4 rocket 4.3 04:44:39 10° N 04:49:22 63° WNW 04:54:02 10° SSW
Meteor 1-26 Rocket 4.3 04:45:26 10° S 04:51:07 86° E 04:57:03 10° N
Sich 1 3.3 04:47:20 10° NNW 04:51:33 45° W 04:55:42 10° SSW
METEOR-M 4.1 04:50:09 10° N 04:55:25 61° WNW 05:00:39 10° SSW
Cosmos 1666 Rocket 3.5 04:54:25 10° NNW 04:58:45 63° W 05:03:06 10° S
MOS 1 Rocket 3.3 04:55:03 10° SSE 04:59:24 77° ENE 05:04:02 10° N
Cosmos 2074 Rocket 3.9 04:53:28 10° N 04:59:42 86° W 05:05:54 10° S
Cosmos 1023 Rocket 4.4 04:54:31 10° SSW 04:59:43 69° WNW 05:04:52 10° NNE
SeaSat 1 2.8 04:55:02 10° SE 04:59:54 67° ENE 05:04:49 10° NNW
COSMOS 2428 2.7 04:55:53 10° NNW 05:01:32 61° WSW 05:07:08 10° S
BREEZE M DEB (TANK) 3.7 04:59:34 14° NW 05:01:51 40° NNE 05:08:53 10° E
ATLAS 5 CENTAUR R/B 1.7 05:00:51 25° WSW 05:02:46 46° NW 05:06:59 10° NNE
BREEZE-M DEB (TANK) 4.2 05:00:37 16° WNW 05:03:00 24° NNW 05:05:18 10° NE
USA 238 DEB 4.2 04:58:38 10° NW 05:05:28 43° WSW 05:12:30 10° S
USA 238 4.2 04:58:44 10° NW 05:05:34 43° WSW 05:12:37 10° S
Cosmos 2154 Rocket 4.3 05:00:56 10° N 05:07:10 71° E 05:13:25 10° SSE
BREEZE-M DEB (TANK) 3.8 05:08:11 19° SW 05:08:50 20° SSW 05:12:14 10° SSE
ATLAS 3B R/B 3.9 05:02:40 10° NNW 05:09:21 45° NE 05:16:17 10° ESE
CZ-4B R/B 3.6 05:06:24 10° N 05:10:01 58° WNW 05:13:35 10° SSW
ADEOS 3.5 05:05:31 10° N 05:10:43 66° WNW 05:15:53 10° SSW
Cosmos 1602 3.7 05:08:36 10° NNW 05:12:27 57° W 05:16:16 10° S
FENGYUN 3A 4.5 05:11:43 10° N 05:16:23 30° WNW 05:21:02 10° SW
H-2A R/B 2.5 05:12:53 10° SSW 05:16:46 35° W 05:20:36 10° NNW
Cosmos 1151 Rocket 3.4 05:14:11 10° SSW 05:18:15 41° WNW 05:22:21 10° N
Cosmos 2219 3.5 05:14:26 10° SSW 05:20:04 72° ESE 05:25:43 10° NNE
NOSS 0 Rocket 3.9 05:19:16 10° NNW 05:25:26 71° WSW 05:31:35 10° SSE
Cosmos 2184 Rocket 4.1 05:20:25 10° NNW 05:26:36 56° W 05:32:47 10° SSW
SKYMED 2 3.6 05:24:04 10° S 05:28:20 56° W 05:32:37 10° NNW
Cosmos 1633 Rocket 3.6 05:25:46 10° NNW 05:29:45 34° W 05:33:42 10° SSW
CZ-2C R/B 3.9 05:27:51 10° S 05:30:18 15° SSE 05:32:45 10° ESE
Cosmos 1242 Rocket 2.3 05:29:58 10° S 05:33:25 83° W 05:36:55 10° N
H-2A R/B 2.7 05:31:19 10° N 05:35:12 71° WNW 05:39:03 10° SSW
ISS -3.8 05:34:12 10° NW 05:37:34 88° SW 05:40:56 10° SE
Milstar 3 Cent rocket 3.8 05:35:01 10° SW 05:37:57 16° S 05:40:54 10° SSE
Cosmos 1812 2.6 05:34:47 10° SSW 05:38:35 67° W 05:42:25 10° N
CZ-2C R/B 3.8 05:35:03 10° SE 05:40:27 50° ENE 05:45:51 10° N
ALOS 3.9 05:38:56 10° NNW 05:41:35 15° WNW 05:44:13 10° W
OAO 3 Rocket 4.3 05:38:14 10° WSW 05:42:33 32° SSW 05:46:50 10° SE
CENTAUR R/B 3.9 05:37:42 10° NW 05:45:00 33° WSW 05:52:39 10° S
Meteor 1-31 Rocket 4.0 05:43:34 10° NNW 05:46:35 22° WNW 05:49:35 10° WSW
Cosmos 1954 Rocket 4.2 05:41:36 10° SW 05:46:44 51° WNW 05:51:51 10° N
RESURS DK-1 2.4 05:43:08 10° SW 05:47:13 65° WNW 05:51:20 10° NNE
Meteor 1-14 Rocket 4.5 05:42:21 10° NNW 05:47:50 51° W 05:53:25 10° SSW
SAR-Lupe-4 3.8 05:45:41 10° SSE 05:49:14 74° ENE 05:52:48 10° N
Cosmos 2237 Rocket 2.2 05:47:07 10° NNW 05:52:43 63° WSW 05:58:16 10° S
